Northfield, Minnesota, United States (55057)
Lat: 44.46N, Lon: 93.16W
Wx Zone: MNZ077
Local Info
Past Weather Observations for Today

NOTE: This archive is for the closest National Weather Service station to Northfield. Information may differ from the station used for current weather conditions.

Click here for Long-term Archive

Time Weather Temperature Dewpoint Humidity Pressure Winds Precip Visibility
17:12
Partly Cloudy
82°F / 28°C 61°F / 16°C 48% 30.06 in
(1018 mb)
NW 9.2 mph
(NW 15 kph)
- 10SM
16:51
Mostly Cloudy
84°F / 29°C 61°F / 16°C 45% 30.06 in
(1018 mb)
NNW 10.4 mph
(NNW 17 kph)
- 10SM
16:31
Clear
82°F / 28°C 61°F / 16°C 48% 30.06 in
(1018 mb)
NNW 8.1 mph
(NNW 13 kph)
- 10SM
16:12
Clear
82°F / 28°C 61°F / 16°C 48% 30.04 in
(1017 mb)
NNW 9.2 mph
(NNW 15 kph)
- 10SM
15:51
Clear
82°F / 28°C 61°F / 16°C 48% 30.04 in
(1017 mb)
NNW 9.2 mph
(NNW 15 kph)
- 10SM
15:31
Partly Cloudy
82°F / 28°C 63°F / 17°C 51% 30.04 in
(1017 mb)
NNW 8.1 mph
(NNW 13 kph)
- 10SM
15:12
Partly Cloudy
82°F / 28°C 64°F / 18°C 55% 30.04 in
(1017 mb)
NNW 8.1 mph
(NNW 13 kph)
- 10SM
14:51
Partly Cloudy
81°F / 27°C 63°F / 17°C 54% 30.04 in
(1017 mb)
NNW 6.9 mph
(NNW 11 kph)
- 10SM
14:31
Partly Cloudy
82°F / 28°C 64°F / 18°C 55% 30.04 in
(1017 mb)
NW 10.4 mph
(NW 17 kph)
- 10SM
14:12
Partly Cloudy
82°F / 28°C 64°F / 18°C 55% 30.04 in
(1017 mb)
NNW 8.1 mph
(NNW 13 kph)
- 10SM
13:51
Partly Cloudy
81°F / 27°C 64°F / 18°C 58% 30.04 in
(1017 mb)
NW 10.4 mph
(NW 17 kph)
- 10SM
13:31
Mostly Cloudy
82°F / 28°C 64°F / 18°C 55% 30.04 in
(1017 mb)
NW 8.1 mph
(NW 13 kph)
- 10SM
13:12
Partly Cloudy
81°F / 27°C 64°F / 18°C 58% 30.04 in
(1017 mb)
NW 9.2 mph
(NW 15 kph)
- 10SM
12:51
Partly Cloudy
81°F / 27°C 64°F / 18°C 58% 30.01 in
(1016 mb)
NNW 11.5 mph
(NNW 19 kph)
- 10SM
12:31
Partly Cloudy
81°F / 27°C 64°F / 18°C 58% 30.01 in
(1016 mb)
NNW 12.7 mph
(NNW 20 kph)
- 10SM
12:11
Partly Cloudy
81°F / 27°C 64°F / 18°C 58% 30.01 in
(1016 mb)
NNW 11.5 mph
(NNW 19 kph)
- 10SM
11:52
Partly Cloudy
81°F / 27°C 64°F / 18°C 58% 30.01 in
(1016 mb)
NNW 12.7 mph
(NNW 20 kph)
- 10SM
11:31
Partly Cloudy
82°F / 28°C 64°F / 18°C 55% 29.98 in
(1015 mb)
N 10.4 mph
(N 17 kph)
- 10SM
11:11
Mostly Cloudy
81°F / 27°C 64°F / 18°C 58% 29.98 in
(1015 mb)
NNW 13.8 mph
(NNW 22 kph)
- 10SM
10:52
Mostly Cloudy
81°F / 27°C 64°F / 18°C 58% 29.98 in
(1015 mb)
NNW 12.7 mph
(NNW 20 kph)
- 10SM
10:31
Mostly Cloudy
81°F / 27°C 64°F / 18°C 58% 29.98 in
(1015 mb)
NNW 11.5 mph
(NNW 19 kph)
- 10SM
10:11
Partly Cloudy
81°F / 27°C 66°F / 19°C 62% 29.98 in
(1015 mb)
NNW 9.2 mph
(NNW 15 kph)
- 10SM
09:52
Mostly Cloudy
79°F / 26°C 66°F / 19°C 65% 29.98 in
(1015 mb)
NW 11.5 mph
(NW 19 kph)
- 10SM
09:31
Mostly Cloudy
79°F / 26°C 66°F / 19°C 65% 29.95 in
(1014 mb)
NW 9.2 mph
(NW 15 kph)
- 10SM
09:11
Partly Cloudy
79°F / 26°C 64°F / 18°C 61% 29.98 in
(1015 mb)
W 11.5 mph
(W 19 kph)
- 10SM
08:52
Clear
77°F / 25°C 64°F / 18°C 65% 29.95 in
(1014 mb)
W 4.6 mph
(W 7 kph)
- 10SM
08:31
Partly Cloudy
77°F / 25°C 64°F / 18°C 65% 29.95 in
(1014 mb)
NW 8.1 mph
(NW 13 kph)
- 10SM
08:11
Clear
77°F / 25°C 64°F / 18°C 65% 29.95 in
(1014 mb)
WNW 8.1 mph
(WNW 13 kph)
- 10SM
07:52
Clear
75°F / 24°C 64°F / 18°C 69% 29.95 in
(1014 mb)
NW 9.2 mph
(NW 15 kph)
- 10SM
07:31
Clear
77°F / 25°C 64°F / 18°C 65% 29.95 in
(1014 mb)
WNW 15 mph
(WNW 24 kph)
- 10SM
07:12
Clear
77°F / 25°C 64°F / 18°C 65% 29.95 in
(1014 mb)
NW 18.4 mph
(NW 30 kph)
- 10SM
06:51
Clear
77°F / 25°C 64°F / 18°C 65% 29.92 in
(1013 mb)
NW 15 mph
(NW 24 kph)
- 10SM
06:31
Clear
79°F / 26°C 64°F / 18°C 61% 29.92 in
(1013 mb)
NW 17.3 mph
(NW 28 kph)
- 10SM
06:12
Clear
79°F / 26°C 66°F / 19°C 65% 29.89 in
(1012 mb)
NW 15 mph
(NW 24 kph)
- 10SM
05:51
Mostly Cloudy
81°F / 27°C 73°F / 23°C 79% 29.89 in
(1012 mb)
NW 8.1 mph
(NW 13 kph)
- 7SM
05:32
Overcast
81°F / 27°C 75°F / 24°C 84% 29.89 in
(1012 mb)
W 11.5 mph
(W 19 kph)
- 7SM
05:11
Overcast
Hazy
79°F / 26°C 75°F / 24°C 89% 29.86 in
(1011 mb)
SW 8.1 mph
(SW 13 kph)
- 5SM
04:51
Partly Cloudy
79°F / 26°C 75°F / 24°C 89% 29.86 in
(1011 mb)
SSW 8.1 mph
(SSW 13 kph)
- 7SM
04:32
Clear
79°F / 26°C 73°F / 23°C 84% 29.83 in
(1010 mb)
SW 9.2 mph
(SW 15 kph)
- 7SM
04:11
Mostly Cloudy
79°F / 26°C 75°F / 24°C 89% 29.8 in
(1009 mb)
SSE 5.8 mph
(SSE 9 kph)
- 7SM
03:51
Overcast
79°F / 26°C 75°F / 24°C 89% 29.8 in
(1009 mb)
SW 5.8 mph
(SW 9 kph)
- 7SM
03:32
Partly Cloudy
79°F / 26°C 73°F / 23°C 84% 29.8 in
(1009 mb)
SW 5.8 mph
(SW 9 kph)
- 7SM
03:11
Clear
79°F / 26°C 73°F / 23°C 84% 29.8 in
(1009 mb)
SSE 6.9 mph
(SSE 11 kph)
- 7SM
02:51
Clear
79°F / 26°C 73°F / 23°C 84% 29.8 in
(1009 mb)
SW 9.2 mph
(SW 15 kph)
- 7SM
02:32
Clear
79°F / 26°C 73°F / 23°C 84% 29.8 in
(1009 mb)
S 11.5 mph
(S 19 kph)
- 7SM
02:11
Clear
81°F / 27°C 73°F / 23°C 79% 29.8 in
(1009 mb)
S 9.2 mph
(S 15 kph)
- 7SM
01:52
Clear
81°F / 27°C 73°F / 23°C 79% 29.8 in
(1009 mb)
S 6.9 mph
(S 11 kph)
- 10SM
01:31
Clear
81°F / 27°C 73°F / 23°C 79% 29.8 in
(1009 mb)
S 8.1 mph
(S 13 kph)
- 10SM
01:11
Clear
81°F / 27°C 73°F / 23°C 79% 29.8 in
(1009 mb)
SSE 8.1 mph
(SSE 13 kph)
- 10SM
00:51
Clear
81°F / 27°C 73°F / 23°C 79% 29.8 in
(1009 mb)
S 10.4 mph
(S 17 kph)
- 10SM
00:31
Clear
81°F / 27°C 73°F / 23°C 79% 29.8 in
(1009 mb)
S 10.4 mph
(S 17 kph)
- 10SM
00:11
Clear
81°F / 27°C 73°F / 23°C 79% 29.8 in
(1009 mb)
S 11.5 mph
(S 19 kph)
- 10SM
Time Weather Temperature Dewpoint Humidity Pressure Winds Precip Visibility


Weather for websites

WeatherForYou.com, LLC is not responsible for any damages or problems caused by this service. Current weather conditions are obtained from the closest station including government and personal stations which may have varying degrees of accuracy. Weather forecasts are derived from the NOAA NDFD. Like all things, this site belongs to Jesus Christ... He just trusts me to maintain it. If you have any questions or comments email webmaster@weatherforyou.com

Copyright © 2014, WeatherForYou.com LLC. All rights reserved.